Time,TemperatureF,DewpointF,PressureIn,WindDirection,WindDirectionDegrees,WindSpeedMPH,WindSpeedGustMPH,Humidity,HourlyPrecipIn,Conditions,Clouds,dailyrainin,SoftwareType,DateUTC
2013-03-18 00:02:00,34.8,34.0,30.00,ENE,63,4.0,7.0,95,0.06,,,0.16,weatherlink.com 1.10,2013-03-18 04:02:00,
2013-03-18 00:17:00,34.8,34.0,29.99,NE,45,5.0,7.0,95,0.06,,,0.18,weatherlink.com 1.10,2013-03-18 04:17:00,
2013-03-18 00:32:00,34.8,34.0,29.99,NE,49,6.0,8.0,95,0.05,,,0.01,weatherlink.com 1.10,2013-03-18 04:32:00,
2013-03-18 00:47:00,34.9,34.0,29.98,NE,56,4.0,11.0,95,0.05,,,0.02,weatherlink.com 1.10,2013-03-18 04:47:00,
2013-03-18 01:02:00,34.9,34.0,29.96,NE,49,1.0,9.0,95,0.06,,,0.04,weatherlink.com 1.10,2013-03-18 05:02:00,
2013-03-18 01:17:00,34.9,34.0,29.96,NE,53,4.0,7.0,95,0.06,,,0.06,weatherlink.com 1.10,2013-03-18 05:17:00,
2013-03-18 01:32:00,34.9,34.0,29.94,ENE,77,4.0,9.0,96,0.07,,,0.08,weatherlink.com 1.10,2013-03-18 05:32:00,
2013-03-18 01:47:00,34.9,34.0,29.94,ENE,65,5.0,8.0,96,0.07,,,0.10,weatherlink.com 1.10,2013-03-18 05:47:00,
2013-03-18 02:02:00,34.9,34.0,29.93,ENE,58,5.0,7.0,96,0.08,,,0.12,weatherlink.com 1.10,2013-03-18 06:02:00,
2013-03-18 02:17:00,34.9,34.0,29.91,NE,54,6.0,8.0,96,0.08,,,0.14,weatherlink.com 1.10,2013-03-18 06:17:00,
2013-03-18 02:32:00,35.0,34.0,29.91,NE,49,7.0,8.0,96,0.08,,,0.16,weatherlink.com 1.10,2013-03-18 06:32:00,
2013-03-18 02:47:00,35.1,34.0,29.90,ENE,67,6.0,9.0,96,0.09,,,0.19,weatherlink.com 1.10,2013-03-18 06:47:00,
2013-03-18 03:02:00,35.2,35.0,29.89,ENE,75,3.0,9.0,97,0.08,,,0.20,weatherlink.com 1.10,2013-03-18 07:02:00,
2013-03-18 03:17:00,35.4,34.0,29.88,East,99,1.0,9.0,96,0.06,,,0.20,weatherlink.com 1.10,2013-03-18 07:17:00,
2013-03-18 03:32:00,35.5,35.0,29.86,ENE,63,6.0,11.0,96,0.04,,,0.20,weatherlink.com 1.10,2013-03-18 07:32:00,
2013-03-18 03:47:00,35.6,35.0,29.85,ENE,76,7.0,11.0,96,0.01,,,0.20,weatherlink.com 1.10,2013-03-18 07:47:00,
2013-03-18 04:02:00,35.8,35.0,29.85,East,96,1.0,11.0,96,0.00,,,0.20,weatherlink.com 1.10,2013-03-18 08:02:00,
2013-03-18 04:17:00,36.0,35.0,29.84,ENE,71,4.0,8.0,96,0.00,,,0.20,weatherlink.com 1.10,2013-03-18 08:17:00,
2013-03-18 04:33:00,36.1,35.0,29.84,NE,56,8.0,8.0,96,0.00,,,0.20,weatherlink.com 1.10,2013-03-18 08:33:00,
2013-03-18 04:48:00,36.1,35.0,29.82,East,91,3.0,7.0,96,0.00,,,0.20,weatherlink.com 1.10,2013-03-18 08:48:00,
2013-03-18 05:03:00,36.1,35.0,29.80,ENE,78,4.0,8.0,96,0.00,,,0.20,weatherlink.com 1.10,2013-03-18 09:03:00,
2013-03-18 05:18:00,36.1,35.0,29.81,ENE,60,3.0,6.0,97,0.00,,,0.20,weatherlink.com 1.10,2013-03-18 09:18:00,
2013-03-18 05:33:00,36.3,36.0,29.82,NE,41,3.0,7.0,97,0.02,,,0.22,weatherlink.com 1.10,2013-03-18 09:33:00,
2013-03-18 05:48:00,36.0,35.0,29.78,NE,49,2.0,7.0,97,0.06,,,0.26,weatherlink.com 1.10,2013-03-18 09:48:00,
2013-03-18 06:03:00,36.1,35.0,29.78,NE,41,1.0,6.0,97,0.07,,,0.27,weatherlink.com 1.10,2013-03-18 10:03:00,
2013-03-18 06:18:00,36.3,36.0,29.85,North,5,2.0,14.0,97,0.19,,,0.39,weatherlink.com 1.10,2013-03-18 10:18:00,
2013-03-18 06:33:00,35.9,35.0,29.82,NE,50,3.0,5.0,97,0.26,,,0.48,weatherlink.com 1.10,2013-03-18 10:33:00,
2013-03-18 06:48:00,35.6,35.0,29.78,East,92,8.0,8.0,97,0.30,,,0.56,weatherlink.com 1.10,2013-03-18 10:48:00,
2013-03-18 07:03:00,35.5,35.0,29.74,East,93,9.0,12.0,98,0.35,,,0.62,weatherlink.com 1.10,2013-03-18 11:03:00,
2013-03-18 07:18:00,35.9,35.0,29.75,NE,34,4.0,9.0,98,0.27,,,0.67,weatherlink.com 1.10,2013-03-18 11:18:00,
2013-03-18 07:33:00,36.2,36.0,29.76,ENE,73,2.0,6.0,98,0.19,,,0.68,weatherlink.com 1.10,2013-03-18 11:33:00,
2013-03-18 07:48:00,36.5,36.0,29.75,East,88,5.0,7.0,98,0.12,,,0.68,weatherlink.com 1.10,2013-03-18 11:48:00,
2013-03-18 08:03:00,36.6,36.0,29.74,East,86,6.0,8.0,98,0.05,,,0.68,weatherlink.com 1.10,2013-03-18 12:03:00,
2013-03-18 08:18:00,36.8,36.0,29.74,East,93,8.0,9.0,98,0.01,,,0.68,weatherlink.com 1.10,2013-03-18 12:18:00,
2013-03-18 08:33:00,37.1,37.0,29.73,East,96,5.0,7.0,98,0.00,,,0.68,weatherlink.com 1.10,2013-03-18 12:33:00,
2013-03-18 08:48:00,37.6,37.0,29.74,East,82,4.0,6.0,98,0.00,,,0.68,weatherlink.com 1.10,2013-03-18 12:48:00,
2013-03-18 09:03:00,37.9,37.0,29.72,ESE,104,5.0,6.0,98,0.00,,,0.68,weatherlink.com 1.10,2013-03-18 13:03:00,
2013-03-18 09:18:00,38.3,38.0,29.73,ESE,115,3.0,5.0,98,0.00,,,0.68,weatherlink.com 1.10,2013-03-18 13:18:00,
2013-03-18 09:33:00,38.5,38.0,29.72,ESE,119,3.0,5.0,97,0.00,,,0.68,weatherlink.com 1.10,2013-03-18 13:33:00,
2013-03-18 09:49:00,39.1,38.0,29.71,ESE,108,4.0,9.0,97,0.00,,,0.68,weatherlink.com 1.10,2013-03-18 13:49:00,
2013-03-18 10:03:00,39.7,39.0,29.70,ESE,108,8.0,9.0,97,0.00,,,0.68,weatherlink.com 1.10,2013-03-18 14:03:00,
2013-03-18 10:18:00,40.4,40.0,29.71,ESE,113,5.0,11.0,97,0.00,,,0.68,weatherlink.com 1.10,2013-03-18 14:18:00,
2013-03-18 10:33:00,41.0,40.0,29.70,ESE,103,5.0,8.0,97,0.00,,,0.68,weatherlink.com 1.10,2013-03-18 14:33:00,
2013-03-18 10:49:00,41.5,41.0,29.70,SE,124,3.0,7.0,97,0.00,,,0.68,weatherlink.com 1.10,2013-03-18 14:49:00,
2013-03-18 11:04:00,41.9,41.0,29.70,ESE,115,5.0,7.0,97,0.00,,,0.68,weatherlink.com 1.10,2013-03-18 15:04:00,
2013-03-18 11:19:00,42.5,42.0,29.70,East,96,4.0,8.0,97,0.00,,,0.68,weatherlink.com 1.10,2013-03-18 15:19:00,
2013-03-18 11:34:00,42.9,42.0,29.69,ESE,119,5.0,8.0,97,0.00,,,0.68,weatherlink.com 1.10,2013-03-18 15:34:00,
2013-03-18 11:49:00,43.0,42.0,29.70,SE,132,3.0,4.0,97,0.00,,,0.68,weatherlink.com 1.10,2013-03-18 15:49:00,
2013-03-18 12:04:00,43.5,43.0,29.69,ESE,115,7.0,7.0,98,0.00,,,0.68,weatherlink.com 1.10,2013-03-18 16:04:00,
2013-03-18 12:20:00,44.1,44.0,29.68,SE,132,4.0,7.0,98,0.00,,,0.68,weatherlink.com 1.10,2013-03-18 16:20:00,
2013-03-18 12:34:00,44.6,44.0,29.67,SSE,158,2.0,5.0,98,0.00,,,0.68,weatherlink.com 1.10,2013-03-18 16:34:00,
2013-03-18 12:49:00,44.8,44.0,29.68,SW,224,10.0,10.0,98,0.00,,,0.68,weatherlink.com 1.10,2013-03-18 16:49:00,
2013-03-18 13:04:00,44.0,43.0,29.68,SE,145,3.0,6.0,97,0.00,,,0.68,weatherlink.com 1.10,2013-03-18 17:04:00,
2013-03-18 13:19:00,44.5,44.0,29.67,SSE,148,4.0,6.0,98,0.00,,,0.68,weatherlink.com 1.10,2013-03-18 17:19:00,
2013-03-18 13:34:00,45.2,45.0,29.67,SSE,148,3.0,5.0,98,0.00,,,0.68,weatherlink.com 1.10,2013-03-18 17:34:00,
2013-03-18 13:49:00,45.6,45.0,29.67,SW,215,4.0,5.0,98,0.00,,,0.68,weatherlink.com 1.10,2013-03-18 17:49:00,
2013-03-18 14:04:00,45.3,45.0,29.67,SSW,203,1.0,4.0,98,0.00,,,0.68,weatherlink.com 1.10,2013-03-18 18:04:00,
2013-03-18 14:19:00,46.0,46.0,29.67,SW,233,2.0,4.0,98,0.01,,,0.69,weatherlink.com 1.10,2013-03-18 18:19:00,
2013-03-18 14:34:00,46.7,47.0,29.66,SSW,198,2.0,5.0,99,0.01,,,0.69,weatherlink.com 1.10,2013-03-18 18:34:00,
2013-03-18 14:49:00,47.1,47.0,29.64,South,183,2.0,4.0,99,0.01,,,0.69,weatherlink.com 1.10,2013-03-18 18:49:00,
2013-03-18 15:04:00,47.4,47.0,29.66,WSW,238,2.0,6.0,99,0.01,,,0.69,weatherlink.com 1.10,2013-03-18 19:04:00,
2013-03-18 15:19:00,47.7,48.0,29.66,WSW,239,1.0,6.0,99,0.01,,,0.70,weatherlink.com 1.10,2013-03-18 19:19:00,
2013-03-18 15:34:00,48.0,48.0,29.64,SW,231,3.0,4.0,99,0.01,,,0.70,weatherlink.com 1.10,2013-03-18 19:34:00,
2013-03-18 15:49:00,48.4,48.0,29.65,SW,217,4.0,8.0,99,0.01,,,0.70,weatherlink.com 1.10,2013-03-18 19:49:00,
2013-03-18 16:04:00,48.5,48.0,29.64,SSW,208,1.0,6.0,99,0.01,,,0.70,weatherlink.com 1.10,2013-03-18 20:04:00,
2013-03-18 16:19:00,48.5,48.0,29.65,SW,221,5.0,5.0,99,0.00,,,0.70,weatherlink.com 1.10,2013-03-18 20:19:00,
2013-03-18 16:34:00,48.5,48.0,29.65,South,188,4.0,8.0,99,0.00,,,0.70,weatherlink.com 1.10,2013-03-18 20:34:00,
2013-03-18 16:49:00,48.7,49.0,29.64,SSW,203,3.0,7.0,99,0.00,,,0.70,weatherlink.com 1.10,2013-03-18 20:49:00,
2013-03-18 17:04:00,49.0,49.0,29.66,West,274,4.0,9.0,99,0.00,,,0.70,weatherlink.com 1.10,2013-03-18 21:04:00,
2013-03-18 17:19:00,49.3,49.0,29.66,NW,304,0.0,4.0,99,0.00,,,0.70,weatherlink.com 1.10,2013-03-18 21:19:00,
2013-03-18 17:34:00,49.3,49.0,29.67,WSW,248,6.0,14.0,98,0.00,,,0.70,weatherlink.com 1.10,2013-03-18 21:34:00,
2013-03-18 17:49:00,49.5,48.0,29.67,NW,310,3.0,8.0,96,0.00,,,0.70,weatherlink.com 1.10,2013-03-18 21:49:00,
2013-03-18 18:04:00,49.5,48.0,29.67,SSW,204,4.0,9.0,95,0.00,,,0.70,weatherlink.com 1.10,2013-03-18 22:04:00,
2013-03-18 18:19:00,49.5,48.0,29.68,SSW,205,4.0,8.0,94,0.00,,,0.70,weatherlink.com 1.10,2013-03-18 22:19:00,
2013-03-18 18:34:00,49.5,48.0,29.69,SW,214,3.0,11.0,94,0.00,,,0.70,weatherlink.com 1.10,2013-03-18 22:34:00,
2013-03-18 18:49:00,49.3,48.0,29.69,SSW,205,4.0,8.0,94,0.00,,,0.70,weatherlink.com 1.10,2013-03-18 22:49:00,
2013-03-18 19:04:00,49.3,48.0,29.70,WSW,255,4.0,7.0,94,0.00,,,0.70,weatherlink.com 1.10,2013-03-18 23:04:00,
2013-03-18 19:19:00,49.3,47.0,29.72,SW,232,2.0,8.0,93,0.00,,,0.70,weatherlink.com 1.10,2013-03-18 23:19:00,
2013-03-18 19:34:00,49.0,47.0,29.73,West,263,5.0,9.0,91,0.00,,,0.70,weatherlink.com 1.10,2013-03-18 23:34:00,
2013-03-18 19:49:00,48.7,46.0,29.73,WSW,252,4.0,8.0,89,0.00,,,0.70,weatherlink.com 1.10,2013-03-18 23:49:00,
2013-03-18 20:04:00,48.3,45.0,29.73,WNW,290,7.0,10.0,88,0.00,,,0.70,weatherlink.com 1.10,2013-03-19 00:04:00,
2013-03-18 20:19:00,47.8,45.0,29.75,WSW,250,3.0,10.0,89,0.00,,,0.70,weatherlink.com 1.10,2013-03-19 00:19:00,
2013-03-18 20:34:00,47.2,45.0,29.76,West,259,3.0,10.0,90,0.00,,,0.70,weatherlink.com 1.10,2013-03-19 00:34:00,
2013-03-18 21:04:00,45.8,43.0,29.77,WSW,255,5.0,9.0,89,0.00,,,0.70,weatherlink.com 1.10,2013-03-19 01:04:00,
2013-03-18 21:19:00,45.3,42.0,29.77,WSW,253,9.0,13.0,89,0.00,,,0.70,weatherlink.com 1.10,2013-03-19 01:19:00,
2013-03-18 21:34:00,45.1,42.0,29.79,WSW,257,3.0,10.0,88,0.00,,,0.70,weatherlink.com 1.10,2013-03-19 01:34:00,
2013-03-18 21:49:00,44.8,41.0,29.79,WSW,249,3.0,11.0,87,0.00,,,0.70,weatherlink.com 1.10,2013-03-19 01:49:00,
2013-03-18 22:04:00,44.5,41.0,29.80,NNW,333,1.0,11.0,86,0.00,,,0.70,weatherlink.com 1.10,2013-03-19 02:04:00,
2013-03-18 22:19:00,44.3,41.0,29.80,West,267,2.0,8.0,87,0.00,,,0.70,weatherlink.com 1.10,2013-03-19 02:19:00,
2013-03-18 22:34:00,43.9,40.0,29.82,West,270,2.0,12.0,85,0.00,,,0.70,weatherlink.com 1.10,2013-03-19 02:34:00,
2013-03-18 22:49:00,43.6,39.0,29.82,West,266,2.0,9.0,84,0.00,,,0.70,weatherlink.com 1.10,2013-03-19 02:49:00,
2013-03-18 23:04:00,43.1,38.0,29.84,WSW,250,9.0,16.0,81,0.00,,,0.70,weatherlink.com 1.10,2013-03-19 03:04:00,
2013-03-18 23:19:00,42.7,37.0,29.84,WSW,252,4.0,13.0,80,0.00,,,0.70,weatherlink.com 1.10,2013-03-19 03:19:00,
2013-03-18 23:35:00,42.3,37.0,29.85,SW,222,1.0,12.0,81,0.00,,,0.70,weatherlink.com 1.10,2013-03-19 03:35:00,
2013-03-18 23:50:00,41.7,36.0,29.85,West,267,6.0,10.0,79,0.00,,,0.70,weatherlink.com 1.10,2013-03-19 03:50:00,